Time,TemperatureF,DewpointF,PressureIn,WindDirection,WindDirectionDegrees,WindSpeedMPH,WindSpeedGustMPH,Humidity,HourlyPrecipIn,Conditions,Clouds,dailyrainin,SoftwareType,DateUTC
2013-07-15 00:01:00,77.0,71.0,30.19,SE,127,0.0,0.0,82,0.00,,,0.00,,2013-07-15 04:01:00,
2013-07-15 00:11:00,77.0,71.0,30.19,SE,127,0.0,0.0,82,0.00,,,0.00,,2013-07-15 04:11:00,
2013-07-15 00:22:00,76.0,70.0,30.19,SE,127,0.0,0.0,82,0.00,,,0.00,,2013-07-15 04:22:00,
2013-07-15 00:32:00,77.0,71.0,30.19,SE,127,0.0,1.0,82,0.00,,,0.00,,2013-07-15 04:32:00,
2013-07-15 00:42:00,77.0,71.0,30.19,SE,127,0.0,1.0,82,0.00,,,0.00,,2013-07-15 04:42:00,
2013-07-15 00:54:00,77.0,71.0,30.19,ESE,105,0.0,3.0,81,0.00,,,0.00,,2013-07-15 04:54:00,
2013-07-15 01:02:00,77.0,71.0,30.19,ESE,120,0.0,2.0,81,0.00,,,0.00,,2013-07-15 05:02:00,
2013-07-15 01:11:00,77.0,71.0,30.19,ESE,120,0.0,2.0,81,0.00,,,0.00,,2013-07-15 05:11:00,
2013-07-15 01:22:00,77.0,71.0,30.19,ESE,108,1.0,3.0,81,0.00,,,0.00,,2013-07-15 05:22:00,
2013-07-15 01:32:00,77.0,71.0,30.19,ESE,123,1.0,4.0,81,0.00,,,0.00,,2013-07-15 05:32:00,
2013-07-15 01:43:00,77.0,71.0,30.19,ESE,123,1.0,4.0,81,0.00,,,0.00,,2013-07-15 05:43:00,
2013-07-15 01:53:00,77.0,71.0,30.19,ESE,107,1.0,5.0,81,0.00,,,0.00,,2013-07-15 05:53:00,
2013-07-15 02:02:00,77.0,71.0,30.19,ESE,120,1.0,3.0,82,0.00,,,0.00,,2013-07-15 06:02:00,
2013-07-15 02:12:00,77.0,71.0,30.19,ESE,120,1.0,3.0,82,0.00,,,0.00,,2013-07-15 06:12:00,
2013-07-15 02:22:00,77.0,71.0,30.19,SE,125,1.0,5.0,82,0.00,,,0.00,,2013-07-15 06:22:00,
2013-07-15 02:32:00,77.0,71.0,30.19,ESE,111,1.0,4.0,81,0.00,,,0.00,,2013-07-15 06:32:00,
2013-07-15 02:42:00,77.0,71.0,30.19,ESE,111,1.0,4.0,81,0.00,,,0.00,,2013-07-15 06:42:00,
2013-07-15 02:53:00,77.0,71.0,30.19,ESE,111,1.0,5.0,82,0.00,,,0.00,,2013-07-15 06:53:00,
2013-07-15 03:01:00,77.0,71.0,30.19,ESE,116,1.0,5.0,82,0.00,,,0.00,,2013-07-15 07:01:00,
2013-07-15 03:11:00,77.0,71.0,30.19,ESE,116,1.0,5.0,82,0.00,,,0.00,,2013-07-15 07:11:00,
2013-07-15 03:22:00,76.0,70.0,30.19,ESE,109,1.0,6.0,83,0.00,,,0.00,,2013-07-15 07:22:00,
2013-07-15 03:33:00,76.0,71.0,30.19,ESE,119,0.0,4.0,84,0.00,,,0.00,,2013-07-15 07:33:00,
2013-07-15 03:44:00,76.0,71.0,30.19,ESE,119,0.0,4.0,84,0.00,,,0.00,,2013-07-15 07:44:00,
2013-07-15 03:53:00,76.0,71.0,30.19,ESE,117,0.0,3.0,85,0.00,,,0.00,,2013-07-15 07:53:00,
2013-07-15 04:01:00,75.0,71.0,30.19,ESE,117,0.0,3.0,86,0.00,,,0.00,,2013-07-15 08:01:00,
2013-07-15 04:11:00,75.0,71.0,30.19,ESE,117,0.0,3.0,86,0.00,,,0.00,,2013-07-15 08:11:00,
2013-07-15 04:22:00,75.0,71.0,30.19,ESE,119,0.0,2.0,87,0.00,,,0.00,,2013-07-15 08:22:00,
2013-07-15 04:32:00,75.0,71.0,30.20,SE,133,0.0,1.0,87,0.00,,,0.00,,2013-07-15 08:32:00,
2013-07-15 04:43:00,75.0,71.0,30.20,SE,133,0.0,1.0,87,0.00,,,0.00,,2013-07-15 08:43:00,
2013-07-15 04:53:00,74.0,70.0,30.20,SE,133,0.0,0.0,88,0.00,,,0.00,,2013-07-15 08:53:00,
2013-07-15 05:02:00,74.0,71.0,30.20,SE,133,0.0,0.0,89,0.00,,,0.00,,2013-07-15 09:02:00,
2013-07-15 05:11:00,74.0,71.0,30.20,SE,133,0.0,0.0,89,0.00,,,0.00,,2013-07-15 09:11:00,
2013-07-15 05:22:00,73.0,70.0,30.20,SE,133,0.0,0.0,89,0.00,,,0.00,,2013-07-15 09:22:00,
2013-07-15 05:32:00,73.0,70.0,30.20,SE,133,0.0,0.0,90,0.00,,,0.00,,2013-07-15 09:32:00,
2013-07-15 05:43:00,73.0,70.0,30.20,SE,133,0.0,0.0,90,0.00,,,0.00,,2013-07-15 09:43:00,
2013-07-15 05:52:00,72.0,69.0,30.21,SE,133,0.0,0.0,90,0.00,,,0.00,,2013-07-15 09:52:00,
2013-07-15 06:02:00,72.0,70.0,30.21,SE,133,0.0,0.0,92,0.00,,,0.00,,2013-07-15 10:02:00,
2013-07-15 06:11:00,72.0,70.0,30.21,SE,133,0.0,0.0,92,0.00,,,0.00,,2013-07-15 10:11:00,
2013-07-15 06:22:00,71.0,69.0,30.22,SE,133,0.0,0.0,92,0.00,,,0.00,,2013-07-15 10:22:00,
2013-07-15 06:32:00,71.0,69.0,30.22,SE,133,0.0,0.0,93,0.00,,,0.00,,2013-07-15 10:32:00,
2013-07-15 06:43:00,71.0,69.0,30.22,SE,133,0.0,0.0,93,0.00,,,0.00,,2013-07-15 10:43:00,
2013-07-15 06:53:00,71.0,69.0,30.22,SE,133,0.0,0.0,94,0.00,,,0.00,,2013-07-15 10:53:00,
2013-07-15 07:02:00,71.0,69.0,30.22,SE,133,0.0,0.0,94,0.00,,,0.00,,2013-07-15 11:02:00,
2013-07-15 07:11:00,71.0,69.0,30.22,SE,133,0.0,0.0,94,0.00,,,0.00,,2013-07-15 11:11:00,
2013-07-15 07:22:00,71.0,69.0,30.22,SE,133,0.0,0.0,94,0.00,,,0.00,,2013-07-15 11:22:00,
2013-07-15 07:32:00,71.0,69.0,30.23,SE,133,0.0,0.0,94,0.00,,,0.00,,2013-07-15 11:32:00,
2013-07-15 07:42:00,71.0,69.0,30.23,SE,133,0.0,0.0,94,0.00,,,0.00,,2013-07-15 11:42:00,
2013-07-15 07:52:00,72.0,70.0,30.23,SE,133,0.0,1.0,94,0.00,,,0.00,,2013-07-15 11:52:00,
2013-07-15 08:11:00,74.0,72.0,30.23,SE,133,0.0,1.0,92,0.00,,,0.00,,2013-07-15 12:11:00,
2013-07-15 08:22:00,75.0,72.0,30.23,ESE,119,1.0,4.0,89,0.00,,,0.00,,2013-07-15 12:22:00,
2013-07-15 08:32:00,77.0,73.0,30.24,SE,124,1.0,4.0,87,0.00,,,0.00,,2013-07-15 12:32:00,
2013-07-15 08:42:00,77.0,73.0,30.24,SE,124,1.0,4.0,87,0.00,,,0.00,,2013-07-15 12:42:00,
2013-07-15 08:52:00,78.0,73.0,30.24,SE,128,0.0,4.0,86,0.00,,,0.00,,2013-07-15 12:52:00,
2013-07-15 09:01:00,79.0,73.0,30.24,SE,137,1.0,3.0,82,0.00,,,0.00,,2013-07-15 13:01:00,
2013-07-15 09:11:00,79.0,73.0,30.24,SE,137,1.0,3.0,82,0.00,,,0.00,,2013-07-15 13:11:00,
2013-07-15 09:22:00,80.0,74.0,30.24,ESE,119,3.0,5.0,81,0.00,,,0.00,,2013-07-15 13:22:00,
2013-07-15 09:33:00,80.0,74.0,30.24,ESE,119,3.0,5.0,81,0.00,,,0.00,,2013-07-15 13:33:00,
2013-07-15 09:43:00,81.0,74.0,30.24,SE,143,1.0,3.0,80,0.00,,,0.00,,2013-07-15 13:43:00,
2013-07-15 09:53:00,81.0,74.0,30.24,SE,143,1.0,3.0,80,0.00,,,0.00,,2013-07-15 13:53:00,
2013-07-15 10:02:00,82.0,74.0,30.24,SE,136,1.0,4.0,78,0.00,,,0.00,,2013-07-15 14:02:00,
2013-07-15 10:11:00,83.0,75.0,30.24,ESE,115,0.0,3.0,78,0.00,,,0.00,,2013-07-15 14:11:00,
2013-07-15 10:22:00,83.0,75.0,30.24,ESE,115,0.0,3.0,78,0.00,,,0.00,,2013-07-15 14:22:00,
2013-07-15 10:33:00,84.0,76.0,30.24,ESE,122,1.0,3.0,76,0.00,,,0.00,,2013-07-15 14:33:00,
2013-07-15 10:42:00,84.0,75.0,30.24,SE,126,1.0,3.0,74,0.00,,,0.00,,2013-07-15 14:42:00,
2013-07-15 10:57:00,84.0,75.0,30.24,SE,126,1.0,3.0,74,0.00,,,0.00,,2013-07-15 14:57:00,
2013-07-15 11:03:00,85.0,75.0,30.24,SSE,150,0.0,3.0,73,0.00,,,0.00,,2013-07-15 15:03:00,
2013-07-15 11:46:00,86.0,75.0,30.24,SW,234,1.0,4.0,70,0.00,,,0.00,,2013-07-15 15:46:00,
2013-07-15 11:53:00,86.0,75.0,30.24,SW,234,1.0,4.0,70,0.00,,,0.00,,2013-07-15 15:53:00,
2013-07-15 12:08:00,86.0,75.0,30.24,SE,124,0.0,3.0,71,0.00,,,0.00,,2013-07-15 16:08:00,
2013-07-15 12:15:00,88.0,77.0,30.24,SE,130,0.0,3.0,70,0.00,,,0.00,,2013-07-15 16:15:00,
2013-07-15 12:33:00,88.0,76.0,30.24,SSE,159,0.0,4.0,68,0.00,,,0.00,,2013-07-15 16:33:00,
2013-07-15 12:52:00,88.0,75.0,30.24,SE,128,2.0,4.0,66,0.00,,,0.00,,2013-07-15 16:52:00,
2013-07-15 13:07:00,88.0,76.0,30.23,SSW,213,1.0,5.0,67,0.00,,,0.00,,2013-07-15 17:07:00,
2013-07-15 13:13:00,88.0,76.0,30.23,SE,142,1.0,5.0,67,0.00,,,0.00,,2013-07-15 17:13:00,
2013-07-15 13:36:00,88.0,76.0,30.23,SSW,200,0.0,3.0,67,0.00,,,0.00,,2013-07-15 17:36:00,
2013-07-15 13:55:00,88.0,76.0,30.23,South,188,0.0,3.0,68,0.00,,,0.00,,2013-07-15 17:55:00,
2013-07-15 14:06:00,88.0,75.0,30.23,SE,132,1.0,4.0,65,0.00,,,0.00,,2013-07-15 18:06:00,
2013-07-15 14:17:00,87.0,75.0,30.23,SE,144,0.0,3.0,68,0.00,,,0.00,,2013-07-15 18:17:00,
2013-07-15 14:38:00,86.0,75.0,30.23,SE,131,0.0,3.0,69,0.00,,,0.00,,2013-07-15 18:38:00,
2013-07-15 14:45:00,85.0,77.0,30.23,ESE,115,2.0,4.0,76,0.00,,,0.00,,2013-07-15 18:45:00,
2013-07-15 15:05:00,85.0,76.0,30.23,ENE,71,2.0,7.0,74,0.00,,,0.00,,2013-07-15 19:05:00,
2013-07-15 15:24:00,86.0,76.0,30.23,East,89,1.0,4.0,72,0.00,,,0.00,,2013-07-15 19:24:00,
2013-07-15 15:36:00,84.0,76.0,30.22,ESE,120,0.0,5.0,76,0.00,,,0.00,,2013-07-15 19:36:00,
2013-07-15 15:47:00,83.0,75.0,30.23,ESE,123,1.0,3.0,77,0.00,,,0.00,,2013-07-15 19:47:00,
2013-07-15 15:56:00,83.0,75.0,30.23,ESE,123,1.0,3.0,77,0.00,,,0.00,,2013-07-15 19:56:00,
2013-07-15 16:07:00,82.0,75.0,30.22,ESE,116,1.0,4.0,79,0.00,,,0.00,,2013-07-15 20:07:00,
2013-07-15 16:37:00,83.0,77.0,30.22,ESE,111,0.0,3.0,81,0.00,,,0.00,,2013-07-15 20:37:00,
2013-07-15 16:43:00,83.0,75.0,30.21,ESE,111,0.0,2.0,78,0.00,,,0.00,,2013-07-15 20:43:00,
2013-07-15 16:54:00,83.0,75.0,30.21,ESE,111,0.0,2.0,78,0.00,,,0.00,,2013-07-15 20:54:00,
2013-07-15 17:03:00,84.0,76.0,30.21,ESE,109,0.0,2.0,77,0.00,,,0.00,,2013-07-15 21:03:00,
2013-07-15 17:23:00,85.0,78.0,30.21,NW,321,2.0,4.0,80,0.00,,,0.00,,2013-07-15 21:23:00,
2013-07-15 17:38:00,86.0,78.0,30.20,NW,304,0.0,1.0,76,0.00,,,0.00,,2013-07-15 21:38:00,
2013-07-15 17:48:00,88.0,77.0,30.20,SE,128,0.0,3.0,70,0.00,,,0.00,,2013-07-15 21:48:00,
2013-07-15 17:56:00,88.0,77.0,30.20,SE,128,0.0,3.0,70,0.00,,,0.00,,2013-07-15 21:56:00,
2013-07-15 18:03:00,88.0,77.0,30.20,SE,130,0.0,3.0,71,0.00,,,0.00,,2013-07-15 22:03:00,
2013-07-15 18:22:00,88.0,79.0,30.20,ESE,115,0.0,3.0,75,0.00,,,0.00,,2013-07-15 22:22:00,
2013-07-15 18:34:00,87.0,77.0,30.19,SE,125,0.0,3.0,73,0.00,,,0.00,,2013-07-15 22:34:00,
2013-07-15 18:43:00,87.0,78.0,30.19,SE,125,0.0,1.0,75,0.00,,,0.00,,2013-07-15 22:43:00,
2013-07-15 18:54:00,86.0,78.0,30.19,SE,125,0.0,2.0,78,0.00,,,0.00,,2013-07-15 22:54:00,
2013-07-15 19:06:00,86.0,78.0,30.19,SE,125,0.0,2.0,78,0.00,,,0.00,,2013-07-15 23:06:00,
2013-07-15 19:13:00,85.0,78.0,30.19,SE,125,0.0,3.0,80,0.00,,,0.00,,2013-07-15 23:13:00,
2013-07-15 19:39:00,84.0,77.0,30.19,SE,125,0.0,1.0,80,0.00,,,0.00,,2013-07-15 23:39:00,
2013-07-15 19:53:00,83.0,77.0,30.19,SE,124,0.0,2.0,82,0.00,,,0.00,,2013-07-15 23:53:00,
2013-07-15 20:03:00,83.0,77.0,30.19,SE,124,0.0,2.0,82,0.00,,,0.00,,2013-07-16 00:03:00,
2013-07-15 20:16:00,83.0,77.0,30.19,ESE,123,0.0,0.0,82,0.00,,,0.00,,2013-07-16 00:16:00,
2013-07-15 20:26:00,82.0,76.0,30.19,ENE,63,0.0,3.0,83,0.00,,,0.00,,2013-07-16 00:26:00,
2013-07-15 20:33:00,82.0,76.0,30.19,ENE,63,0.0,3.0,83,0.00,,,0.00,,2013-07-16 00:33:00,
2013-07-15 20:53:00,82.0,77.0,30.19,ENE,63,0.0,0.0,85,0.00,,,0.00,,2013-07-16 00:53:00,
2013-07-15 21:09:00,82.0,77.0,30.19,ENE,63,0.0,0.0,85,0.00,,,0.00,,2013-07-16 01:09:00,
2013-07-15 21:16:00,81.0,76.0,30.19,ENE,63,0.0,0.0,86,0.00,,,0.00,,2013-07-16 01:16:00,
2013-07-15 21:27:00,81.0,76.0,30.19,ENE,63,0.0,0.0,86,0.00,,,0.00,,2013-07-16 01:27:00,
2013-07-15 21:37:00,81.0,77.0,30.19,ENE,63,0.0,0.0,87,0.00,,,0.00,,2013-07-16 01:37:00,
2013-07-15 21:49:00,80.0,76.0,30.20,ENE,63,0.0,2.0,88,0.00,,,0.00,,2013-07-16 01:49:00,
2013-07-15 21:57:00,80.0,76.0,30.20,ENE,63,0.0,2.0,88,0.00,,,0.00,,2013-07-16 01:57:00,
2013-07-15 22:05:00,79.0,75.0,30.21,ENE,63,0.0,1.0,89,0.00,,,0.00,,2013-07-16 02:05:00,
2013-07-15 22:11:00,79.0,76.0,30.22,ENE,63,0.0,0.0,90,0.00,,,0.00,,2013-07-16 02:11:00,
2013-07-15 22:35:00,79.0,76.0,30.22,SE,127,0.0,2.0,90,0.00,,,0.00,,2013-07-16 02:35:00,
2013-07-15 23:39:00,77.0,74.0,30.24,ESE,115,0.0,0.0,91,0.00,,,0.00,,2013-07-16 03:39:00,